Location: Aufkirchen
(47.9603°N, 11.3653°E)
Time: 04:37:18
(UTC+01:00)

Courier 1B Rocket - Pass Details

Date: 01 December 2020
Orbit: 920 x 1202 km, 28.2° (Epoch: 23 January)

Event Time Altitude Azimuth Distance (km) Brightness Sun altitude
Rises 06:36:05 0° 233° (SW) 4,090 7.9 -10.9°
Reaches altitude 10° 06:40:10 10° 215° (SW) 3,125 7.5 -10.3°
Maximum altitude 06:44:40 17° 179° (S) 2,645 7.6 -9.6°
Drops below altitude 10° 06:49:06 10° 143° (SE) 3,077 8.7 -8.9°
Sets 06:53:05 0° 124° (SE) 3,998 10.3 -8.3°
